Location: アルンシュタイン
(50.0000°N, 10.0000°E)
Time: 16:52:52
(UTC+02:00)

Vanguard 1 - Pass Details

Date: 15 September 2024
Orbit: 649 x 3825 km, 34.3° (Epoch: 02 October)

Event Time Altitude Azimuth Distance (km) Brightness Sun altitude
Rises 15:19:23 0° 242° (WSW) 5,391 14.7 35.9°
Reaches altitude 10° 15:24:25 10° 230° (SW) 3,793 14.4 35.3°
Maximum altitude 15:30:51 22° 184° (S) 2,266 13.0 34.7°
Drops below altitude 10° 15:35:22 10° 135° (SE) 2,555 12.3 34.2°
Sets 15:38:00 0° 118° (ESE) 3,259 12.6 33.9°
